#timestamp,LO_Frequency,Hit,StdDev 
1551596415.3,286046999.4,N
1551596435.1,286046998.7,N
1551596455.9,286046999.3,N
1551596475.7,286047001.1,N
1551596495.6,286046998.9,N
1551596515.4,286046998.6,N
1551596535.2,286047000.0,N
1551596555.1,286047001.5,N
1551596556.0,286047001.5,N
1551596575.8,286047005.9,N
1551596595.6,286047004.7,N
1551596615.5,286047005.6,N
1551596635.3,286047005.3,N
1551596655.2,286047005.7,N
1551596675.9,286047002.9,N
1551596695.7,286047004.3,N
1551596715.6,286047004.4,N
1551596735.4,286047004.2,N
1551596755.2,286047004.0,N
1551596775.1,286047001.3,N
1551596776.0,286047001.3,N
1551596795.8,286047004.0,N
1551596815.7,286047001.5,N
1551596835.5,286047001.4,N
1551596855.3,286047003.7,N
1551596875.2,286047003.5,N
1551596895.0,286047003.6,N
1551596895.9,286047003.6,N
1551596915.8,286047005.5,N
1551596935.6,286047003.8,N
1551596955.4,286047005.2,N
1551596975.3,286047006.0,N
1551596995.1,286047003.6,N
1551597015.8,286047001.7,N
1551597035.7,286047003.5,N
1551597055.5,286047006.0,Y
1551597075.4,286047001.8,P
1551597095.2,286046999.8,N
1551597115.0,286047000.1,N
1551597115.9,286047000.1,N
1551597135.8,286047001.4,N
1551597155.6,286047000.1,N
1551597175.4,286047001.1,N
1551597195.3,286047000.7,N
1551597215.1,286046998.6,N
1551597235.9,286046998.7,N
1551597255.7,286046996.5,N
1551597275.5,286046995.1,N
1551597295.4,286046995.5,N
1551597315.2,286046993.8,N
1551597335.0,286046997.8,N
1551597335.9,286046997.8,N
1551597355.8,286046995.1,N
1551597375.6,286046995.5,N
1551597395.5,286046996.4,N
1551597415.3,286046995.5,N
1551597435.1,286046997.9,N
1551597455.9,286046993.3,N
1551597475.7,286046994.2,N
1551597495.5,286046994.0,N
1551597515.4,286046992.3,N
1551597535.2,286046994.1,N
1551597555.1,286046993.8,N
1551597556.0,286046993.8,N
1551597575.8,286046991.7,N
1551597595.6,286046991.8,N
1551597615.5,286046992.9,N
1551597635.3,286046991.8,N
1551597655.1,286046993.6,N
1551597675.9,286046993.4,N
1551597695.7,286046996.4,N
1551597715.5,286046994.5,N
1551597735.3,286046994.2,N
1551597755.2,286046993.2,Y
1551597775.0,286046995.0,P
1551597775.9,286046995.0,P
1551597795.8,286046995.1,P
1551597815.6,286046997.3,Y
1551597835.4,286047004.0,P
1551597855.3,286047001.7,N
1551597875.1,286047003.1,N
1551597895.9,286047003.5,N
1551597915.7,286047003.7,N
1551597935.5,286047005.2,N
1551597955.4,286047003.8,N
1551597975.2,286047002.6,N
1551597995.0,286047000.8,N
1551597995.9,286047000.8,N
1551598015.8,286046999.3,N
1551598035.6,286046999.4,N
1551598055.5,286046999.5,N
1551598075.3,286046996.5,N
1551598095.1,286046999.0,N
1551598115.9,286047001.0,N
1551598135.7,286046999.8,N
1551598155.5,286047001.0,N
1551598175.4,286046998.7,N
1551598195.2,286047001.0,N
1551598215.1,286047000.8,N
1551598216.0,286047000.8,N
1551598235.8,286047000.3,N
1551598255.6,286046998.5,N
1551598275.5,286046998.6,N
1551598295.3,286046998.4,N
1551598315.2,286046998.6,N
1551598335.9,286046999.3,N
1551598355.7,286046999.1,N
1551598375.6,286046999.5,N
1551598395.4,286046996.7,N
1551598415.2,286046996.6,N
1551598435.1,286046997.4,N
1551598436.0,286046997.4,N
1551598455.8,286046998.0,N
1551598475.7,286046995.3,N
1551598495.5,286046997.7,N
1551598515.3,286046997.8,N
1551598535.2,286046997.4,N
1551598555.9,286046996.9,N
1551598575.7,286046999.6,N
1551598595.6,286046997.4,N
1551598615.4,286046999.2,N
1551598635.3,286046996.5,N
1551598655.1,286046996.9,N
1551598656.0,286046996.9,N
1551598675.8,286046996.6,N
1551598695.7,286046999.6,N
1551598715.5,286046999.1,N
1551598735.4,286046996.9,N
1551598755.2,286046995.0,Y
1551598775.0,286046999.5,P
1551598775.9,286046999.5,N
1551598795.8,286046997.7,P
1551598815.6,286046997.7,N
1551598835.4,286046997.8,N
1551598855.3,286046997.8,N
1551598875.1,286046998.0,N
1551598895.9,286046997.6,Y
1551598915.7,286046999.5,P
1551598935.5,286046999.1,N
1551598955.4,286046998.7,N
1551598975.2,286046998.1,Y
1551598995.1,286047000.3,P
1551598996.0,286047000.3,N
1551599015.8,286047001.1,N
1551599035.6,286047001.9,N
1551599055.5,286047002.3,N
1551599075.3,286047000.4,N
1551599095.1,286047000.6,N
1551599115.9,286047000.3,N
1551599135.7,286046999.9,N
1551599155.6,286047001.8,N
1551599175.4,286047001.8,N
1551599195.2,286047004.2,Y
1551599215.1,286047001.5,P
1551599216.0,286047001.5,P
1551599235.8,286047001.8,P
1551599255.7,286047004.4,Y
1551599275.5,286046999.9,P
1551599295.3,286047002.6,P
1551599315.1,286047004.3,P
1551599316.0,286047004.3,N
1551599335.8,286047004.2,N
1551599355.6,286047004.4,N
1551599375.5,286047003.9,N
1551599395.3,286047001.8,N
1551599415.2,286047002.0,N
1551599435.9,286047006.0,Y
1551599455.7,286047000.7,P
1551599475.6,286047000.9,N
1551599495.4,286047000.8,N
1551599515.2,286047000.7,N
1551599535.1,286046998.2,N
1551599536.0,286046998.2,N
1551599555.8,286046998.1,N
1551599575.7,286047000.4,N
1551599595.7,286046998.4,N
1551599615.5,286046999.6,N
1551599635.4,286047002.3,N
1551599655.2,286047007.9,Y
1551599675.1,286047007.8,P
1551599676.0,286047007.8,N
1551599695.8,286047006.2,N
1551599715.6,286047005.1,N
1551599735.5,286047001.6,N
1551599755.3,286046999.7,N
1551599775.2,286047002.2,N
1551599795.9,286047002.4,N
1551599815.7,286047002.5,N
1551599835.6,286046999.9,N
1551599855.4,286046999.4,N
1551599875.2,286046996.5,N
1551599895.1,286046995.4,N
1551599896.0,286046995.4,N
1551599915.8,286046994.9,N
1551599935.7,286046995.0,N
1551599955.5,286046995.5,N
1551599975.4,286046993.5,N
1551599995.2,286046995.8,N
